TimePDT,TemperatureF,Dew PointF,Humidity,Sea Level PressureIn,VisibilityMPH,Wind Direction,Wind SpeedMPH,Gust SpeedMPH,PrecipitationIn,Events,Conditions,WindDirDegrees,DateUTC
12:53 AM,59.0,46.0,62,29.96,10.0,WNW,11.5,-,N/A,,Clear,300,2013-06-19 07:53:00
1:53 AM,59.0,45.0,60,29.97,10.0,NNW,10.4,-,N/A,,Clear,340,2013-06-19 08:53:00
2:53 AM,57.9,45.0,62,29.98,10.0,NW,10.4,-,N/A,,Clear,320,2013-06-19 09:53:00
3:53 AM,55.9,46.0,69,29.99,10.0,North,4.6,-,N/A,,Clear,10,2013-06-19 10:53:00
4:53 AM,55.0,46.9,74,29.99,10.0,NNW,4.6,-,N/A,,Clear,340,2013-06-19 11:53:00
5:53 AM,54.0,46.9,77,29.99,10.0,North,5.8,-,N/A,,Clear,350,2013-06-19 12:53:00
6:53 AM,57.0,46.9,69,30.01,10.0,NNW,8.1,-,N/A,,Clear,340,2013-06-19 13:53:00
7:53 AM,60.1,46.0,60,30.01,10.0,NW,11.5,-,N/A,,Clear,320,2013-06-19 14:53:00
8:53 AM,64.0,45.0,50,30.01,10.0,NW,11.5,-,N/A,,Clear,310,2013-06-19 15:53:00
9:53 AM,69.1,45.0,42,30.01,10.0,NNW,10.4,-,N/A,,Clear,330,2013-06-19 16:53:00
10:53 AM,72.0,44.1,37,30.01,10.0,NW,15.0,20.7,N/A,,Clear,320,2013-06-19 17:53:00
11:53 AM,75.9,41.0,29,30.01,10.0,NW,19.6,-,N/A,,Clear,310,2013-06-19 18:53:00
12:53 PM,77.0,42.1,29,29.99,10.0,NW,17.3,23.0,N/A,,Clear,310,2013-06-19 19:53:00
1:53 PM,79.0,39.9,25,29.98,10.0,NNW,12.7,21.9,N/A,,Clear,330,2013-06-19 20:53:00
2:53 PM,80.1,37.9,22,29.97,10.0,WNW,15.0,23.0,N/A,,Clear,300,2013-06-19 21:53:00
3:53 PM,80.1,35.1,20,29.96,10.0,NNW,16.1,21.9,N/A,,Clear,340,2013-06-19 22:53:00
4:53 PM,81.0,26.1,13,29.96,10.0,NW,15.0,21.9,N/A,,Clear,310,2013-06-19 23:53:00
5:53 PM,80.1,32.0,17,29.94,10.0,NNW,11.5,-,N/A,,Clear,330,2013-06-20 00:53:00
6:53 PM,78.1,34.0,20,29.95,10.0,NW,17.3,23.0,N/A,,Clear,320,2013-06-20 01:53:00
7:53 PM,75.9,37.9,25,29.95,10.0,NW,10.4,20.7,N/A,,Clear,310,2013-06-20 02:53:00
8:53 PM,71.1,39.0,31,29.95,10.0,WNW,17.3,-,N/A,,Clear,290,2013-06-20 03:53:00
9:53 PM,69.1,37.9,32,29.96,10.0,WNW,13.8,-,N/A,,Clear,300,2013-06-20 04:53:00
10:53 PM,64.9,42.1,43,29.95,10.0,NW,10.4,-,N/A,,Clear,310,2013-06-20 05:53:00
11:53 PM,64.0,43.0,46,29.95,10.0,NW,9.2,-,N/A,,Clear,320,2013-06-20 06:53:00